Location: Academy at Carrie F Thomas
(32.8490°N, 97.2053°W)
Time: 15:09:50
(UTC+00:00)

Cosmos 1515 Rocket - Visible Passes

Search period start: 26 June 2022 00:00
Search period end: 06 July 2022 00:00
Orbit: 606 x 629 km, 82.5° (Epoch: 25 June)

Date Brightness Start Highest point End Pass type
(mag) Time Alt. Az. Time Alt. Az. Time Alt. Az.
26 Jun 4.8 09:53:24 10° N 09:57:34 41° E 10:01:41 10° SSE visible
27 Jun 3.6 10:10:04 10° N 10:14:29 85° E 10:18:50 10° S visible
28 Jun 6.6 08:52:01 10° ENE 08:53:14 11° ENE 08:54:28 10° E visible
28 Jun 3.8 10:27:06 10° NNW 10:31:19 46° W 10:35:28 10° SSW visible
29 Jun 5.9 09:06:59 10° NNE 09:10:21 21° ENE 09:13:41 10° SE visible
29 Jun 4.8 10:44:34 10° NW 10:48:03 23° W 10:51:30 10° SW visible
30 Jun 4.7 09:23:12 10° N 09:27:21 41° E 09:31:28 10° SSE visible
01 Jul 3.5 09:39:52 10° N 09:44:16 85° E 09:47:29 18° S visible
02 Jul 6.4 08:21:46 10° NE 08:23:02 11° ENE 08:24:17 10° E visible
02 Jul 3.8 09:56:54 10° NNW 10:01:06 46° W 10:03:28 23° SSW visible
03 Jul 5.7 08:36:46 10° NNE 08:40:08 21° ENE 08:42:28 15° ESE visible
03 Jul 4.8 10:14:23 10° NW 10:17:50 23° W 10:19:32 18° WSW visible
04 Jul 4.6 08:52:59 10° N 08:57:08 41° E 08:58:35 31° SE visible
04 Jul 5.5 10:32:56 10° WNW 10:34:29 12° W 10:35:40 11° WSW visible
05 Jul 3.4 09:09:40 10° N 09:14:03 86° E 09:14:46 62° SSE visible
